Terug naar catalogus

STARLINK-30217

ActiefCommunicatieVLEO
NORAD 57450·PAYLOAD·🇺🇸 United States

Gelanceerd Jul 24, 2023 vanaf Cape Canaveral Space Force Station

Loading…

Volgende Passages (komende 24 uur)

TLE

VersSource: CelesTrak SupGP

Epoch: Sep 15, 2026, 02:54 UTC

1 57450C 23105W   26258.12131944 -.00018399  00000+0 -66641-3 0  2585
2 57450  43.0024 259.0786 0001590 267.2047  59.1238 15.27587143    18

Volg STARLINK-30217 in realtime met AllMySat

Download on the App Store